Tracking 19800 objects as of 24-Jul-2019
HD Live streaming from Space Station
objects crossing your sky now

SL-12 R/B(2)

Track SL-12 R/B(2) now!


NORAD ID: 25743
Int'l Code: 1999-027D
Perigee: 7,097.8 km
Apogee: 35,654.2 km
Inclination: 16.5 °
Period: 766.6 minutes
Semi major axis: 27746 km
RCS: 23.7189 m2 (large)
Launch date: May 20, 1999
Source: Commonwealth of Independent States (former USSR) (CIS)
Launch site: TYURATAM MISSILE AND SPACE COMPLEX (TTMTR)

Note: This is a ROCKET BODY
aabbcc
Your satellite tracking list
Your tracking list is empty




NASA's NSSDC Master Catalog

Two Line Element Set (TLE):
1 25743U 99027D   19204.35919910 -.00000055  00000-0  00000+0 0  9991
2 25743  16.5181 145.0427 5145857  41.9902  66.0318  1.87836184138505
Source of the keplerian elements: AFSPC